Location: Grantsboro
(35.1404°N, 76.8424°W)
Time: 20:44:22
(UTC+00:00)

STARLINK-23 - Pass Details

Date: 18 January 2020
Orbit: 528 x 531 km, 53.0° (Epoch: 25 February)

Event Time Altitude Azimuth Distance (km) Brightness Sun altitude
Exits shadow 10:01:41 12° 171° (S) 1,647 6.2 -26.8°
Drops below altitude 10° 10:07:20 10° 77° (ENE) 1,767 7.1 -25.7°
Enters shadow 11:12:11 -55° 228° (SW) 11,043 10.1 -12.7°
Maximum altitude 11:43:10 41° 321° (NW) 771 4.0 -6.7°
